Coatesville, PA

4:53 AM EDT on March 25, 2017 (GMT -0400)
Chester County Carlson

Weather History for KMQS - April, 2013

Change the Weather History Date:

Sunday, April 28, 2013

  Actual Average (KILG) Record (KILG)
Temperature  
Mean Temperature 57 °F -  
Max Temperature 68 °F 66 °F 89 °F (1990)
Min Temperature 46 °F 45 °F 30 °F (1934)
Degree Days  
Heating Degree Days 8    
Growing Degree Days 7 (Base 50)    
Moisture  
Dew Point 36 °F    
Average Humidity 47    
Maximum Humidity 76    
Minimum Humidity 28    
Precipitation  
Precipitation 0.01 in - - ()
Sea Level Pressure  
Sea Level Pressure 30.26 in    
Wind  
Wind Speed 4 mph (South)    
Max Wind Speed 12 mph    
Max Gust Speed 18 mph    
Visibility 10 miles    
Events Rain    
Averages and records for this station are not official NWS values.
T = Trace of Precipitation, MM = Missing Value Source: NWS Daily Summary

Daily Weather History Graph

Daily Weather History Graph

Search for Another Location

Airport or City:

Trip Planner

Search our weather history database for the weather conditions in past years. The results will help you decide how hot, cold, wet, or windy it might be!

Date:

Astronomy

Apr. 28, 2013 Rise Set
Actual Time 6:07 AM EDT 7:55 PM EDT
Civil Twilight 5:38 AM EDT 8:24 PM EDT
Nautical Twilight 5:02 AM EDT 8:59 PM EDT
Astronomical Twilight 4:25 AM EDT 9:37 PM EDT
Moon 11:23 PM EDT (4/28) 8:21 AM EDT (4/28)
Length of Visible Light 14h 46m
Length of Day
13h 48m
Waning Gibbous, 89% of the Moon is Illuminated
Apr 28
Waning Gibbous
May 2
Last Quarter
May 9
New
May 18
First Quarter
May 25
Full

Hourly Weather History & Observations

Time (EDT) Temp. Windchill Dew Point Humidity Pressure Visibility Wind Dir Wind Speed Gust Speed Precip Events Conditions
12:15 AM 51.8 °F - 35.6 °F 54% 30.32 in 10.0 mi Calm Calm - N/A   Clear
12:35 AM 51.8 °F - 33.8 °F 50% 30.32 in 10.0 mi SW 3.5 mph - N/A   Clear
12:55 AM 51.8 °F - 33.8 °F 50% 30.31 in 10.0 mi Calm Calm - N/A   Clear
1:15 AM 51.8 °F - 33.8 °F 50% 30.31 in 10.0 mi SW 3.5 mph - N/A   Clear
1:35 AM 51.8 °F - 35.6 °F 54% 30.31 in 10.0 mi Calm Calm - N/A   Clear
1:55 AM 51.8 °F - 35.6 °F 54% 30.31 in 10.0 mi Calm Calm - N/A   Clear
2:15 AM 51.8 °F - 35.6 °F 54% 30.30 in 10.0 mi Calm Calm - N/A   Clear
2:35 AM 51.8 °F - 37.4 °F 58% 30.30 in 10.0 mi Calm Calm - N/A   Clear
2:55 AM 51.8 °F - 37.4 °F 58% 30.29 in 10.0 mi SW 3.5 mph - N/A   Clear
3:15 AM 51.8 °F - 37.4 °F 58% 30.29 in 10.0 mi SW 3.5 mph - N/A   Clear
3:35 AM 51.8 °F - 37.4 °F 58% 30.29 in 10.0 mi SW 4.6 mph - N/A   Clear
3:55 AM 51.8 °F - 39.2 °F 62% 30.29 in 10.0 mi Calm Calm - N/A   Clear
4:15 AM 51.8 °F - 39.2 °F 62% 30.29 in 10.0 mi WSW 3.5 mph - N/A   Clear
4:35 AM 48.2 °F - 39.2 °F 71% 30.28 in 10.0 mi WSW 3.5 mph - N/A   Clear
4:55 AM 48.2 °F - 39.2 °F 71% 30.28 in 10.0 mi Calm Calm - N/A   Clear
5:15 AM 48.2 °F - 39.2 °F 71% 30.28 in 10.0 mi Calm Calm - N/A   Clear
5:35 AM 48.2 °F - 39.2 °F 71% 30.27 in 10.0 mi West 3.5 mph - N/A   Clear
5:55 AM 46.4 °F 45.2 °F 39.2 °F 76% 30.28 in 10.0 mi West 3.5 mph - N/A   Clear
6:15 AM 48.2 °F - 41.0 °F 76% 30.28 in 10.0 mi West 3.5 mph - N/A   Clear
6:35 AM 48.2 °F - 41.0 °F 76% 30.28 in 10.0 mi West 4.6 mph - N/A   Clear
6:55 AM 48.2 °F - 41.0 °F 76% 30.29 in 10.0 mi West 4.6 mph - N/A   Clear
7:15 AM 51.8 °F - 41.0 °F 67% 30.29 in 10.0 mi Calm Calm - N/A   Clear
7:35 AM 51.8 °F - 42.8 °F 71% 30.30 in 10.0 mi Calm Calm - N/A   Clear
7:55 AM 53.6 °F - 41.0 °F 62% 30.31 in 10.0 mi SSW 3.5 mph - N/A   Clear
8:15 AM 55.4 °F - 39.2 °F 54% 30.31 in 10.0 mi WSW 3.5 mph - N/A   Clear
8:35 AM 55.4 °F - 37.4 °F 51% 30.31 in 10.0 mi SW 3.5 mph - N/A   Clear
8:55 AM 59.0 °F - 35.6 °F 42% 30.31 in 10.0 mi WSW 4.6 mph - N/A   Clear
9:15 AM 59.0 °F - 37.4 °F 45% 30.31 in 10.0 mi SSW 4.6 mph - N/A   Clear
9:35 AM 60.8 °F - 37.4 °F 42% 30.30 in 10.0 mi South 5.8 mph - N/A   Clear
9:55 AM 62.6 °F - 37.4 °F 39% 30.30 in 10.0 mi SSW 4.6 mph - N/A   Clear
10:15 AM 62.6 °F - 37.4 °F 39% 30.30 in 10.0 mi SSW 6.9 mph - N/A   Clear
10:35 AM 62.6 °F - 37.4 °F 39% 30.30 in 10.0 mi South 4.6 mph - N/A   Clear
10:55 AM 64.4 °F - 37.4 °F 37% 30.30 in 10.0 mi South 5.8 mph - N/A   Clear
11:15 AM 66.2 °F - 37.4 °F 35% 30.31 in 10.0 mi South 6.9 mph - N/A   Clear
11:55 AM 66.2 °F - 35.6 °F 32% 30.30 in 10.0 mi SE 6.9 mph - N/A   Clear
12:15 PM 66.2 °F - 33.8 °F 30% 30.30 in 10.0 mi South 8.1 mph - N/A   Clear
12:55 PM 68.0 °F - 33.8 °F 28% 30.28 in 10.0 mi SSW 6.9 mph 16.1 mph N/A   Clear
1:15 PM 66.2 °F - 35.6 °F 32% 30.27 in 10.0 mi South 8.1 mph - N/A   Clear
1:35 PM 68.0 °F - 35.6 °F 30% 30.27 in 10.0 mi South 9.2 mph 16.1 mph N/A   Clear
1:55 PM 68.0 °F - 35.6 °F 30% 30.26 in 10.0 mi SSE 9.2 mph - N/A   Clear
2:15 PM 68.0 °F - 37.4 °F 33% 30.26 in 10.0 mi SSE 6.9 mph 16.1 mph N/A   Clear
2:35 PM 68.0 °F - 37.4 °F 33% 30.26 in 10.0 mi SE 9.2 mph - N/A   Clear
2:55 PM 68.0 °F - 39.2 °F 35% 30.25 in 10.0 mi SSE 9.2 mph - N/A   Partly Cloudy
3:15 PM 66.2 °F - 37.4 °F 35% 30.25 in 10.0 mi SE 10.4 mph 18.4 mph N/A   Clear
3:35 PM 66.2 °F - 37.4 °F 35% 30.24 in 10.0 mi SE 6.9 mph 16.1 mph N/A   Clear
3:55 PM 64.4 °F - 33.8 °F 32% 30.24 in 10.0 mi SSE 9.2 mph - N/A   Clear
4:15 PM 64.4 °F - 35.6 °F 34% 30.24 in 10.0 mi SSE 9.2 mph - N/A   Clear
4:35 PM 64.4 °F - 33.8 °F 32% 30.24 in 10.0 mi SSE 8.1 mph - N/A   Clear
4:55 PM 62.6 °F - 32.0 °F 32% 30.22 in 10.0 mi SSE 11.5 mph 17.3 mph N/A   Clear
5:15 PM 62.6 °F - 32.0 °F 32% 30.22 in 10.0 mi SSE 11.5 mph - N/A   Clear
5:35 PM 62.6 °F - 32.0 °F 32% 30.22 in 10.0 mi SSE 9.2 mph 16.1 mph N/A   Clear
5:55 PM 62.6 °F - 32.0 °F 32% 30.22 in 10.0 mi SSE 4.6 mph - N/A   Clear
6:15 PM 60.8 °F - 32.0 °F 34% 30.22 in 10.0 mi SSE 4.6 mph - N/A   Clear
6:35 PM 60.8 °F - 32.0 °F 34% 30.21 in 10.0 mi SSE 6.9 mph - N/A   Clear
6:55 PM 59.0 °F - 32.0 °F 36% 30.21 in 10.0 mi SSE 5.8 mph - N/A   Clear
7:15 PM 59.0 °F - 32.0 °F 36% 30.21 in 10.0 mi SSE 8.1 mph - N/A   Clear
7:35 PM 57.2 °F - 30.2 °F 36% 30.21 in 10.0 mi SSE 6.9 mph - N/A   Partly Cloudy
7:55 PM 57.2 °F - 32.0 °F 38% 30.20 in 10.0 mi SE 3.5 mph - N/A   Scattered Clouds
8:15 PM 55.4 °F - 32.0 °F 41% 30.21 in 10.0 mi SE 4.6 mph - N/A   Mostly Cloudy
8:35 PM 55.4 °F - 33.8 °F 44% 30.20 in 10.0 mi SE 5.8 mph - N/A Rain Light Rain
8:55 PM 53.6 °F - 33.8 °F 47% 30.20 in 10.0 mi SSE 8.1 mph - 0.01 in Rain Light Rain
9:15 PM 53.6 °F - 32.0 °F 44% 30.21 in 10.0 mi SE 5.8 mph - N/A   Overcast
9:35 PM 53.6 °F - 32.0 °F 44% 30.22 in 10.0 mi SE 4.6 mph - N/A   Light Drizzle
9:55 PM 53.6 °F - 33.8 °F 47% 30.22 in 10.0 mi SE 5.8 mph - N/A   Mostly Cloudy
10:15 PM 53.6 °F - 33.8 °F 47% 30.23 in 10.0 mi SSE 4.6 mph - N/A   Light Drizzle
10:35 PM 53.6 °F - 33.8 °F 47% 30.22 in 10.0 mi SE 4.6 mph - N/A   Overcast
10:55 PM 53.6 °F - 33.8 °F 47% 30.22 in 10.0 mi SE 6.9 mph - N/A   Overcast
11:15 PM 53.6 °F - 33.8 °F 47% 30.22 in 10.0 mi SE 5.8 mph - N/A   Overcast
11:35 PM 53.6 °F - 35.6 °F 51% 30.22 in 10.0 mi SE 5.8 mph - N/A   Overcast
11:55 PM 53.6 °F - 35.6 °F 51% 30.22 in 10.0 mi SE 6.9 mph - N/A   Overcast